Back to catalog

ONEWEB-0592

AliveCommunicationsPO
NORAD 54658·PAYLOAD·🇬🇧 United Kingdom

Launched Dec 8, 2022 from Cape Canaveral Space Force Station

Loading…

Next Passes (next 24 hours)

TLE

FreshSource: CelesTrak SupGP

Epoch: Sep 14, 2026, 11:54 UTC

1 54658C 22166S   26257.49635833 -.00002321  00000+0 -56266-2 0  2571
2 54658  87.9280 226.1916 0002114  83.5473 338.9343 13.21826176    10

Track ONEWEB-0592 in real time with AllMySat

Download on the App Store